<?xml version="1.0" encoding="UTF-8" standalone="no" ?>
<gpx xmlns="http://www.topografix.com/GPX/1/1" xmlns:xsi="http://www.w3.org/2001/XMLSchema-instance" xsi:schemaLocation="http://www.topografix.com/GPX/1/1 http://www.topografix.com/GPX/1/1/gpx.xsd" version="1.1" creator="VisuGPX - https://www.visugpx.com">
  <metadata>
    <name>Arçais</name>
    <desc><![CDATA[Balade dans le Marais Poitevin près d\'Arçais]]></desc>
  </metadata>
  <trk>
    <name><![CDATA[track]]></name>
    <trkseg>
      <trkpt lat="46.273" lon="-0.71286">
        <ele>6</ele>
        <time>2008-01-22T17:20:44Z</time>
      </trkpt>
      <trkpt lat="46.273" lon="-0.71279">
        <ele>6</ele>
        <time>2008-01-22T17:20:44Z</time>
      </trkpt>
      <trkpt lat="46.27306" lon="-0.71277">
        <ele>6</ele>
        <time>2008-01-22T17:20:44Z</time>
      </trkpt>
      <trkpt lat="46.2732" lon="-0.71285">
        <ele>5</ele>
        <time>2008-01-22T17:20:44Z</time>
      </trkpt>
      <trkpt lat="46.27331" lon="-0.71285">
        <ele>5</ele>
        <time>2008-01-22T17:20:44Z</time>
      </trkpt>
      <trkpt lat="46.27458" lon="-0.71255">
        <ele>6</ele>
        <time>2008-01-22T17:20:44Z</time>
      </trkpt>
      <trkpt lat="46.27482" lon="-0.71247">
        <ele>6</ele>
        <time>2008-01-22T17:20:44Z</time>
      </trkpt>
      <trkpt lat="46.27504" lon="-0.71245">
        <ele>6</ele>
        <time>2008-01-22T17:20:44Z</time>
      </trkpt>
      <trkpt lat="46.27564" lon="-0.71184">
        <ele>6</ele>
        <time>2008-01-22T17:20:44Z</time>
      </trkpt>
      <trkpt lat="46.27595" lon="-0.71148">
        <ele>6</ele>
        <time>2008-01-22T17:20:44Z</time>
      </trkpt>
      <trkpt lat="46.27607" lon="-0.71146">
        <ele>6</ele>
        <time>2008-01-22T17:20:44Z</time>
      </trkpt>
      <trkpt lat="46.27616" lon="-0.71154">
        <ele>6</ele>
        <time>2008-01-22T17:20:44Z</time>
      </trkpt>
      <trkpt lat="46.27629" lon="-0.71171">
        <ele>6</ele>
        <time>2008-01-22T17:20:44Z</time>
      </trkpt>
      <trkpt lat="46.2764" lon="-0.71176">
        <ele>6</ele>
        <time>2008-01-22T17:20:44Z</time>
      </trkpt>
      <trkpt lat="46.27748" lon="-0.7109">
        <ele>6</ele>
        <time>2008-01-22T17:20:44Z</time>
      </trkpt>
      <trkpt lat="46.27804" lon="-0.71041">
        <ele>6</ele>
        <time>2008-01-22T17:20:44Z</time>
      </trkpt>
      <trkpt lat="46.27932" lon="-0.70967">
        <ele>5</ele>
        <time>2008-01-22T17:20:44Z</time>
      </trkpt>
      <trkpt lat="46.2799" lon="-0.70925">
        <ele>6</ele>
        <time>2008-01-22T17:20:44Z</time>
      </trkpt>
      <trkpt lat="46.28001" lon="-0.70905">
        <ele>6</ele>
        <time>2008-01-22T17:20:44Z</time>
      </trkpt>
      <trkpt lat="46.28017" lon="-0.70849">
        <ele>6</ele>
        <time>2008-01-22T17:20:44Z</time>
      </trkpt>
      <trkpt lat="46.2803" lon="-0.70831">
        <ele>7</ele>
        <time>2008-01-22T17:20:44Z</time>
      </trkpt>
      <trkpt lat="46.28062" lon="-0.70808">
        <ele>7</ele>
        <time>2008-01-22T17:20:44Z</time>
      </trkpt>
      <trkpt lat="46.28081" lon="-0.70806">
        <ele>7</ele>
        <time>2008-01-22T17:20:44Z</time>
      </trkpt>
      <trkpt lat="46.28113" lon="-0.70804">
        <ele>7</ele>
        <time>2008-01-22T17:20:44Z</time>
      </trkpt>
      <trkpt lat="46.28134" lon="-0.70797">
        <ele>7</ele>
        <time>2008-01-22T17:20:44Z</time>
      </trkpt>
      <trkpt lat="46.28175" lon="-0.70771">
        <ele>7</ele>
        <time>2008-01-22T17:20:44Z</time>
      </trkpt>
      <trkpt lat="46.28197" lon="-0.70752">
        <ele>8</ele>
        <time>2008-01-22T17:20:44Z</time>
      </trkpt>
      <trkpt lat="46.28235" lon="-0.70694">
        <ele>8</ele>
        <time>2008-01-22T17:20:44Z</time>
      </trkpt>
      <trkpt lat="46.28246" lon="-0.70671">
        <ele>8</ele>
        <time>2008-01-22T17:20:44Z</time>
      </trkpt>
      <trkpt lat="46.28255" lon="-0.70676">
        <ele>8</ele>
        <time>2008-01-22T17:20:44Z</time>
      </trkpt>
      <trkpt lat="46.28305" lon="-0.70833">
        <ele>5</ele>
        <time>2008-01-22T17:20:44Z</time>
      </trkpt>
      <trkpt lat="46.28371" lon="-0.70915">
        <ele>4</ele>
        <time>2008-01-22T17:20:44Z</time>
      </trkpt>
      <trkpt lat="46.28399" lon="-0.70956">
        <ele>3</ele>
        <time>2008-01-22T17:20:44Z</time>
      </trkpt>
      <trkpt lat="46.28457" lon="-0.71078">
        <ele>2</ele>
        <time>2008-01-22T17:20:44Z</time>
      </trkpt>
      <trkpt lat="46.28483" lon="-0.71101">
        <ele>2</ele>
        <time>2008-01-22T17:20:44Z</time>
      </trkpt>
      <trkpt lat="46.28506" lon="-0.71154">
        <ele>3</ele>
        <time>2008-01-22T17:20:44Z</time>
      </trkpt>
      <trkpt lat="46.28542" lon="-0.71189">
        <ele>3</ele>
        <time>2008-01-22T17:20:44Z</time>
      </trkpt>
      <trkpt lat="46.28586" lon="-0.71287">
        <ele>3</ele>
        <time>2008-01-22T17:20:44Z</time>
      </trkpt>
      <trkpt lat="46.28683" lon="-0.71446">
        <ele>4</ele>
        <time>2008-01-22T17:20:44Z</time>
      </trkpt>
      <trkpt lat="46.28718" lon="-0.71475">
        <ele>4</ele>
        <time>2008-01-22T17:20:44Z</time>
      </trkpt>
      <trkpt lat="46.28752" lon="-0.71519">
        <ele>4</ele>
        <time>2008-01-22T17:20:44Z</time>
      </trkpt>
      <trkpt lat="46.28777" lon="-0.7156">
        <ele>4</ele>
        <time>2008-01-22T17:20:44Z</time>
      </trkpt>
      <trkpt lat="46.28804" lon="-0.71612">
        <ele>4</ele>
        <time>2008-01-22T17:20:44Z</time>
      </trkpt>
      <trkpt lat="46.28827" lon="-0.71643">
        <ele>4</ele>
        <time>2008-01-22T17:20:44Z</time>
      </trkpt>
      <trkpt lat="46.28836" lon="-0.71647">
        <ele>4</ele>
        <time>2008-01-22T17:20:44Z</time>
      </trkpt>
      <trkpt lat="46.28873" lon="-0.71617">
        <ele>4</ele>
        <time>2008-01-22T17:20:44Z</time>
      </trkpt>
      <trkpt lat="46.28882" lon="-0.71622">
        <ele>4</ele>
        <time>2008-01-22T17:20:44Z</time>
      </trkpt>
      <trkpt lat="46.28904" lon="-0.71692">
        <ele>4</ele>
        <time>2008-01-22T17:20:44Z</time>
      </trkpt>
      <trkpt lat="46.2891" lon="-0.71697">
        <ele>4</ele>
        <time>2008-01-22T17:20:44Z</time>
      </trkpt>
      <trkpt lat="46.28961" lon="-0.71636">
        <ele>4</ele>
        <time>2008-01-22T17:20:44Z</time>
      </trkpt>
      <trkpt lat="46.29015" lon="-0.7167">
        <ele>4</ele>
        <time>2008-01-22T17:20:44Z</time>
      </trkpt>
      <trkpt lat="46.29041" lon="-0.71683">
        <ele>4</ele>
        <time>2008-01-22T17:20:44Z</time>
      </trkpt>
      <trkpt lat="46.29067" lon="-0.71692">
        <ele>4</ele>
        <time>2008-01-22T17:20:44Z</time>
      </trkpt>
      <trkpt lat="46.29136" lon="-0.71778">
        <ele>4</ele>
        <time>2008-01-22T17:20:44Z</time>
      </trkpt>
      <trkpt lat="46.29144" lon="-0.71778">
        <ele>4</ele>
        <time>2008-01-22T17:20:44Z</time>
      </trkpt>
      <trkpt lat="46.29169" lon="-0.71725">
        <ele>4</ele>
        <time>2008-01-22T17:20:44Z</time>
      </trkpt>
      <trkpt lat="46.29182" lon="-0.71737">
        <ele>4</ele>
        <time>2008-01-22T17:20:44Z</time>
      </trkpt>
      <trkpt lat="46.29235" lon="-0.71817">
        <ele>4</ele>
        <time>2008-01-22T17:20:44Z</time>
      </trkpt>
      <trkpt lat="46.29248" lon="-0.71815">
        <ele>4</ele>
        <time>2008-01-22T17:20:44Z</time>
      </trkpt>
      <trkpt lat="46.29307" lon="-0.71729">
        <ele>4</ele>
        <time>2008-01-22T17:20:44Z</time>
      </trkpt>
      <trkpt lat="46.29316" lon="-0.71741">
        <ele>4</ele>
        <time>2008-01-22T17:20:44Z</time>
      </trkpt>
      <trkpt lat="46.29358" lon="-0.71886">
        <ele>4</ele>
        <time>2008-01-22T17:20:44Z</time>
      </trkpt>
      <trkpt lat="46.29393" lon="-0.71931">
        <ele>4</ele>
        <time>2008-01-22T17:20:44Z</time>
      </trkpt>
      <trkpt lat="46.29459" lon="-0.72024">
        <ele>4</ele>
        <time>2008-01-22T17:20:44Z</time>
      </trkpt>
      <trkpt lat="46.29513" lon="-0.72099">
        <ele>4</ele>
        <time>2008-01-22T17:20:44Z</time>
      </trkpt>
      <trkpt lat="46.29587" lon="-0.72211">
        <ele>4</ele>
        <time>2008-01-22T17:20:44Z</time>
      </trkpt>
      <trkpt lat="46.29599" lon="-0.72242">
        <ele>4</ele>
        <time>2008-01-22T17:20:44Z</time>
      </trkpt>
      <trkpt lat="46.29645" lon="-0.7232">
        <ele>4</ele>
        <time>2008-01-22T17:20:44Z</time>
      </trkpt>
      <trkpt lat="46.29663" lon="-0.7236">
        <ele>4</ele>
        <time>2008-01-22T17:20:44Z</time>
      </trkpt>
      <trkpt lat="46.29687" lon="-0.72433">
        <ele>4</ele>
        <time>2008-01-22T17:20:44Z</time>
      </trkpt>
      <trkpt lat="46.2973" lon="-0.72566">
        <ele>4</ele>
        <time>2008-01-22T17:20:44Z</time>
      </trkpt>
      <trkpt lat="46.2974" lon="-0.72618">
        <ele>4</ele>
        <time>2008-01-22T17:20:44Z</time>
      </trkpt>
      <trkpt lat="46.29735" lon="-0.72628">
        <ele>4</ele>
        <time>2008-01-22T17:20:44Z</time>
      </trkpt>
      <trkpt lat="46.29722" lon="-0.72634">
        <ele>4</ele>
        <time>2008-01-22T17:20:44Z</time>
      </trkpt>
      <trkpt lat="46.29638" lon="-0.72721">
        <ele>4</ele>
        <time>2008-01-22T17:20:44Z</time>
      </trkpt>
      <trkpt lat="46.29634" lon="-0.72735">
        <ele>4</ele>
        <time>2008-01-22T17:20:44Z</time>
      </trkpt>
      <trkpt lat="46.2968" lon="-0.72848">
        <ele>4</ele>
        <time>2008-01-22T17:20:44Z</time>
      </trkpt>
      <trkpt lat="46.29682" lon="-0.72859">
        <ele>4</ele>
        <time>2008-01-22T17:20:44Z</time>
      </trkpt>
      <trkpt lat="46.2967" lon="-0.72883">
        <ele>4</ele>
        <time>2008-01-22T17:20:44Z</time>
      </trkpt>
      <trkpt lat="46.2967" lon="-0.72901">
        <ele>4</ele>
        <time>2008-01-22T17:20:44Z</time>
      </trkpt>
      <trkpt lat="46.29699" lon="-0.72947">
        <ele>4</ele>
        <time>2008-01-22T17:20:44Z</time>
      </trkpt>
      <trkpt lat="46.29704" lon="-0.72946">
        <ele>4</ele>
        <time>2008-01-22T17:20:44Z</time>
      </trkpt>
      <trkpt lat="46.29727" lon="-0.7291">
        <ele>4</ele>
        <time>2008-01-22T17:20:44Z</time>
      </trkpt>
      <trkpt lat="46.29736" lon="-0.72913">
        <ele>4</ele>
        <time>2008-01-22T17:20:44Z</time>
      </trkpt>
      <trkpt lat="46.29765" lon="-0.72983">
        <ele>4</ele>
        <time>2008-01-22T17:20:44Z</time>
      </trkpt>
      <trkpt lat="46.29793" lon="-0.73125">
        <ele>4</ele>
        <time>2008-01-22T17:20:44Z</time>
      </trkpt>
      <trkpt lat="46.29784" lon="-0.73217">
        <ele>4</ele>
        <time>2008-01-22T17:20:44Z</time>
      </trkpt>
      <trkpt lat="46.29788" lon="-0.7329">
        <ele>4</ele>
        <time>2008-01-22T17:20:44Z</time>
      </trkpt>
      <trkpt lat="46.29794" lon="-0.73355">
        <ele>4</ele>
        <time>2008-01-22T17:20:44Z</time>
      </trkpt>
      <trkpt lat="46.29802" lon="-0.73394">
        <ele>4</ele>
        <time>2008-01-22T17:20:44Z</time>
      </trkpt>
      <trkpt lat="46.29822" lon="-0.73437">
        <ele>4</ele>
        <time>2008-01-22T17:20:44Z</time>
      </trkpt>
      <trkpt lat="46.29829" lon="-0.73458">
        <ele>4</ele>
        <time>2008-01-22T17:20:44Z</time>
      </trkpt>
      <trkpt lat="46.29835" lon="-0.7349">
        <ele>4</ele>
        <time>2008-01-22T17:20:44Z</time>
      </trkpt>
      <trkpt lat="46.2985" lon="-0.73511">
        <ele>4</ele>
        <time>2008-01-22T17:20:44Z</time>
      </trkpt>
      <trkpt lat="46.29878" lon="-0.73549">
        <ele>4</ele>
        <time>2008-01-22T17:20:44Z</time>
      </trkpt>
      <trkpt lat="46.29926" lon="-0.73613">
        <ele>4</ele>
        <time>2008-01-22T17:20:44Z</time>
      </trkpt>
      <trkpt lat="46.29926" lon="-0.73627">
        <ele>4</ele>
        <time>2008-01-22T17:20:44Z</time>
      </trkpt>
      <trkpt lat="46.29882" lon="-0.73697">
        <ele>4</ele>
        <time>2008-01-22T17:20:44Z</time>
      </trkpt>
      <trkpt lat="46.29857" lon="-0.73742">
        <ele>4</ele>
        <time>2008-01-22T17:20:44Z</time>
      </trkpt>
      <trkpt lat="46.29792" lon="-0.73837">
        <ele>4</ele>
        <time>2008-01-22T17:20:44Z</time>
      </trkpt>
      <trkpt lat="46.29787" lon="-0.73851">
        <ele>4</ele>
        <time>2008-01-22T17:20:44Z</time>
      </trkpt>
      <trkpt lat="46.29811" lon="-0.73882">
        <ele>4</ele>
        <time>2008-01-22T17:20:44Z</time>
      </trkpt>
      <trkpt lat="46.29817" lon="-0.73894">
        <ele>4</ele>
        <time>2008-01-22T17:20:44Z</time>
      </trkpt>
      <trkpt lat="46.29819" lon="-0.73909">
        <ele>4</ele>
        <time>2008-01-22T17:20:44Z</time>
      </trkpt>
      <trkpt lat="46.29741" lon="-0.74016">
        <ele>4</ele>
        <time>2008-01-22T17:20:44Z</time>
      </trkpt>
      <trkpt lat="46.29724" lon="-0.74025">
        <ele>4</ele>
        <time>2008-01-22T17:20:44Z</time>
      </trkpt>
      <trkpt lat="46.29652" lon="-0.73946">
        <ele>4</ele>
        <time>2008-01-22T17:20:44Z</time>
      </trkpt>
      <trkpt lat="46.29588" lon="-0.73884">
        <ele>4</ele>
        <time>2008-01-22T17:20:44Z</time>
      </trkpt>
      <trkpt lat="46.29556" lon="-0.73846">
        <ele>4</ele>
        <time>2008-01-22T17:20:44Z</time>
      </trkpt>
      <trkpt lat="46.29543" lon="-0.73833">
        <ele>4</ele>
        <time>2008-01-22T17:20:44Z</time>
      </trkpt>
      <trkpt lat="46.29519" lon="-0.73834">
        <ele>4</ele>
        <time>2008-01-22T17:20:44Z</time>
      </trkpt>
      <trkpt lat="46.29503" lon="-0.7384">
        <ele>4</ele>
        <time>2008-01-22T17:20:44Z</time>
      </trkpt>
      <trkpt lat="46.2949" lon="-0.73819">
        <ele>4</ele>
        <time>2008-01-22T17:20:44Z</time>
      </trkpt>
      <trkpt lat="46.29452" lon="-0.73758">
        <ele>4</ele>
        <time>2008-01-22T17:20:44Z</time>
      </trkpt>
      <trkpt lat="46.29388" lon="-0.73658">
        <ele>4</ele>
        <time>2008-01-22T17:20:44Z</time>
      </trkpt>
      <trkpt lat="46.29334" lon="-0.73594">
        <ele>4</ele>
        <time>2008-01-22T17:20:44Z</time>
      </trkpt>
      <trkpt lat="46.29314" lon="-0.73569">
        <ele>4</ele>
        <time>2008-01-22T17:20:44Z</time>
      </trkpt>
      <trkpt lat="46.29269" lon="-0.73456">
        <ele>4</ele>
        <time>2008-01-22T17:20:44Z</time>
      </trkpt>
      <trkpt lat="46.29229" lon="-0.73361">
        <ele>4</ele>
        <time>2008-01-22T17:20:44Z</time>
      </trkpt>
      <trkpt lat="46.29205" lon="-0.73269">
        <ele>4</ele>
        <time>2008-01-22T17:20:44Z</time>
      </trkpt>
      <trkpt lat="46.29191" lon="-0.73257">
        <ele>4</ele>
        <time>2008-01-22T17:20:44Z</time>
      </trkpt>
      <trkpt lat="46.29168" lon="-0.73258">
        <ele>4</ele>
        <time>2008-01-22T17:20:44Z</time>
      </trkpt>
      <trkpt lat="46.29146" lon="-0.73255">
        <ele>4</ele>
        <time>2008-01-22T17:20:44Z</time>
      </trkpt>
      <trkpt lat="46.29136" lon="-0.7324">
        <ele>4</ele>
        <time>2008-01-22T17:20:44Z</time>
      </trkpt>
      <trkpt lat="46.29118" lon="-0.73186">
        <ele>4</ele>
        <time>2008-01-22T17:20:44Z</time>
      </trkpt>
      <trkpt lat="46.29088" lon="-0.73161">
        <ele>4</ele>
        <time>2008-01-22T17:20:44Z</time>
      </trkpt>
      <trkpt lat="46.29039" lon="-0.73108">
        <ele>4</ele>
        <time>2008-01-22T17:20:44Z</time>
      </trkpt>
      <trkpt lat="46.28935" lon="-0.72983">
        <ele>4</ele>
        <time>2008-01-22T17:20:44Z</time>
      </trkpt>
      <trkpt lat="46.28876" lon="-0.72922">
        <ele>4</ele>
        <time>2008-01-22T17:20:44Z</time>
      </trkpt>
      <trkpt lat="46.28785" lon="-0.72812">
        <ele>4</ele>
        <time>2008-01-22T17:20:44Z</time>
      </trkpt>
      <trkpt lat="46.2874" lon="-0.72748">
        <ele>4</ele>
        <time>2008-01-22T17:20:44Z</time>
      </trkpt>
      <trkpt lat="46.2869" lon="-0.72721">
        <ele>5</ele>
        <time>2008-01-22T17:20:44Z</time>
      </trkpt>
      <trkpt lat="46.28655" lon="-0.72673">
        <ele>5</ele>
        <time>2008-01-22T17:20:44Z</time>
      </trkpt>
      <trkpt lat="46.28623" lon="-0.72645">
        <ele>5</ele>
        <time>2008-01-22T17:20:44Z</time>
      </trkpt>
      <trkpt lat="46.28573" lon="-0.72575">
        <ele>5</ele>
        <time>2008-01-22T17:20:44Z</time>
      </trkpt>
      <trkpt lat="46.28548" lon="-0.72555">
        <ele>5</ele>
        <time>2008-01-22T17:20:44Z</time>
      </trkpt>
      <trkpt lat="46.28502" lon="-0.72552">
        <ele>5</ele>
        <time>2008-01-22T17:20:44Z</time>
      </trkpt>
      <trkpt lat="46.28486" lon="-0.72544">
        <ele>5</ele>
        <time>2008-01-22T17:20:44Z</time>
      </trkpt>
      <trkpt lat="46.28429" lon="-0.7245">
        <ele>5</ele>
        <time>2008-01-22T17:20:44Z</time>
      </trkpt>
      <trkpt lat="46.28366" lon="-0.72351">
        <ele>4</ele>
        <time>2008-01-22T17:20:44Z</time>
      </trkpt>
      <trkpt lat="46.28336" lon="-0.72299">
        <ele>4</ele>
        <time>2008-01-22T17:20:44Z</time>
      </trkpt>
      <trkpt lat="46.28286" lon="-0.72196">
        <ele>4</ele>
        <time>2008-01-22T17:20:44Z</time>
      </trkpt>
      <trkpt lat="46.2826" lon="-0.72138">
        <ele>4</ele>
        <time>2008-01-22T17:20:44Z</time>
      </trkpt>
      <trkpt lat="46.28231" lon="-0.72103">
        <ele>4</ele>
        <time>2008-01-22T17:20:44Z</time>
      </trkpt>
      <trkpt lat="46.28198" lon="-0.72078">
        <ele>4</ele>
        <time>2008-01-22T17:20:44Z</time>
      </trkpt>
      <trkpt lat="46.28176" lon="-0.72064">
        <ele>4</ele>
        <time>2008-01-22T17:20:44Z</time>
      </trkpt>
      <trkpt lat="46.28154" lon="-0.72024">
        <ele>4</ele>
        <time>2008-01-22T17:20:44Z</time>
      </trkpt>
      <trkpt lat="46.28141" lon="-0.71974">
        <ele>4</ele>
        <time>2008-01-22T17:20:44Z</time>
      </trkpt>
      <trkpt lat="46.28104" lon="-0.71897">
        <ele>4</ele>
        <time>2008-01-22T17:20:44Z</time>
      </trkpt>
      <trkpt lat="46.28083" lon="-0.71835">
        <ele>4</ele>
        <time>2008-01-22T17:20:44Z</time>
      </trkpt>
      <trkpt lat="46.2806" lon="-0.71798">
        <ele>4</ele>
        <time>2008-01-22T17:20:44Z</time>
      </trkpt>
      <trkpt lat="46.28009" lon="-0.71748">
        <ele>4</ele>
        <time>2008-01-22T17:20:44Z</time>
      </trkpt>
      <trkpt lat="46.27965" lon="-0.71731">
        <ele>3</ele>
        <time>2008-01-22T17:20:44Z</time>
      </trkpt>
      <trkpt lat="46.2792" lon="-0.71703">
        <ele>3</ele>
        <time>2008-01-22T17:20:44Z</time>
      </trkpt>
      <trkpt lat="46.27887" lon="-0.71676">
        <ele>3</ele>
        <time>2008-01-22T17:20:44Z</time>
      </trkpt>
      <trkpt lat="46.27871" lon="-0.71671">
        <ele>3</ele>
        <time>2008-01-22T17:20:44Z</time>
      </trkpt>
      <trkpt lat="46.27846" lon="-0.71684">
        <ele>3</ele>
        <time>2008-01-22T17:20:44Z</time>
      </trkpt>
      <trkpt lat="46.27837" lon="-0.71703">
        <ele>3</ele>
        <time>2008-01-22T17:20:44Z</time>
      </trkpt>
      <trkpt lat="46.27821" lon="-0.71716">
        <ele>3</ele>
        <time>2008-01-22T17:20:44Z</time>
      </trkpt>
      <trkpt lat="46.27806" lon="-0.71715">
        <ele>3</ele>
        <time>2008-01-22T17:20:44Z</time>
      </trkpt>
      <trkpt lat="46.27717" lon="-0.71673">
        <ele>3</ele>
        <time>2008-01-22T17:20:44Z</time>
      </trkpt>
      <trkpt lat="46.27677" lon="-0.71664">
        <ele>3</ele>
        <time>2008-01-22T17:20:44Z</time>
      </trkpt>
      <trkpt lat="46.27615" lon="-0.71617">
        <ele>4</ele>
        <time>2008-01-22T17:20:44Z</time>
      </trkpt>
      <trkpt lat="46.27532" lon="-0.71562">
        <ele>4</ele>
        <time>2008-01-22T17:20:44Z</time>
      </trkpt>
      <trkpt lat="46.27438" lon="-0.71496">
        <ele>4</ele>
        <time>2008-01-22T17:20:44Z</time>
      </trkpt>
      <trkpt lat="46.27386" lon="-0.71486">
        <ele>4</ele>
        <time>2008-01-22T17:20:44Z</time>
      </trkpt>
      <trkpt lat="46.27373" lon="-0.71476">
        <ele>4</ele>
        <time>2008-01-22T17:20:44Z</time>
      </trkpt>
      <trkpt lat="46.27336" lon="-0.71386">
        <ele>4</ele>
        <time>2008-01-22T17:20:44Z</time>
      </trkpt>
      <trkpt lat="46.27315" lon="-0.7135">
        <ele>5</ele>
        <time>2008-01-22T17:20:44Z</time>
      </trkpt>
      <trkpt lat="46.273" lon="-0.71285">
        <ele>6</ele>
        <time>2008-01-22T17:20:44Z</time>
      </trkpt>
    </trkseg>
  </trk>
</gpx>